TimeCST,TemperatureF,Dew PointF,Humidity,Sea Level PressureIn,VisibilityMPH,Wind Direction,Wind SpeedMPH,Gust SpeedMPH,PrecipitationIn,Events,Conditions,WindDirDegrees,DateUTC
12:52 AM,41.0,32.0,70,30.30,10.0,Calm,Calm,-,N/A,,Clear,0,2013-01-10 06:52:00
1:52 AM,39.9,30.9,70,30.28,10.0,NNE,3.5,-,N/A,,Clear,30,2013-01-10 07:52:00
2:52 AM,41.0,30.9,67,30.26,10.0,ENE,4.6,-,N/A,,Clear,60,2013-01-10 08:52:00
3:52 AM,42.1,30.9,65,30.22,10.0,ENE,8.1,-,0.00,Rain,Light Rain,60,2013-01-10 09:52:00
4:52 AM,42.1,33.1,70,30.17,10.0,East,5.8,-,0.00,Rain,Light Rain,80,2013-01-10 10:52:00
5:23 AM,42.8,33.8,70,30.13,10.0,East,8.1,-,0.02,Rain,Light Rain,100,2013-01-10 11:23:00
5:52 AM,42.8,35.6,76,30.12,5.0,East,12.7,19.6,N/A,Rain,Light Rain,100,2013-01-10 11:52:00
6:30 AM,39.2,37.4,93,30.10,2.5,East,10.4,-,0.01,Rain,Light Rain,90,2013-01-10 12:30:00
6:32 AM,39.2,37.4,93,30.10,2.5,East,10.4,-,0.01,Rain,Light Rain,80,2013-01-10 12:32:00
6:40 AM,39.2,37.4,93,30.10,3.0,ENE,10.4,-,0.01,Rain,Light Rain,70,2013-01-10 12:40:00
6:52 AM,39.9,37.0,89,30.12,8.0,East,11.5,18.4,0.01,,Overcast,80,2013-01-10 12:52:00
7:13 AM,39.2,37.4,93,30.10,6.0,East,11.5,-,N/A,Rain,Light Rain,90,2013-01-10 13:13:00
7:52 AM,39.9,37.9,93,30.09,4.0,East,11.5,-,0.03,Rain,Rain,80,2013-01-10 13:52:00
8:52 AM,39.9,37.9,93,30.06,7.0,East,8.1,-,0.05,Rain,Light Rain,90,2013-01-10 14:52:00
9:52 AM,41.0,37.9,89,30.04,10.0,East,9.2,-,0.01,,Overcast,90,2013-01-10 15:52:00
10:33 AM,41.0,39.2,93,29.99,1.8,East,6.9,-,0.01,Rain,Rain,90,2013-01-10 16:33:00
10:52 AM,41.0,39.0,93,30.00,1.8,East,5.8,-,0.04,Rain,Light Rain,90,2013-01-10 16:52:00
11:15 AM,42.8,39.2,87,29.97,2.0,ESE,4.6,-,0.05,Rain,Light Rain,110,2013-01-10 17:15:00
11:22 AM,42.8,39.2,87,29.96,1.2,East,4.6,-,0.05,Rain,Light Rain,100,2013-01-10 17:22:00
11:52 AM,43.0,41.0,93,29.94,1.5,East,4.6,-,0.07,,Overcast,90,2013-01-10 17:52:00
12:39 PM,42.8,42.8,100,29.90,2.5,ESE,4.6,-,N/A,,Overcast,110,2013-01-10 18:39:00
1:02 PM,44.6,42.8,93,29.87,2.5,East,5.8,-,N/A,,Overcast,100,2013-01-10 19:02:00
1:11 PM,44.6,42.8,93,29.87,4.0,ESE,5.8,-,0.00,Rain,Light Rain,110,2013-01-10 19:11:00
1:52 PM,44.6,42.8,93,29.85,9.0,East,3.5,-,N/A,Rain,Light Rain,100,2013-01-10 19:52:00
2:52 PM,46.0,43.0,89,29.87,10.0,Calm,Calm,-,0.01,,Overcast,0,2013-01-10 20:52:00
3:34 PM,44.6,44.6,100,29.84,4.0,East,4.6,-,0.00,,Overcast,90,2013-01-10 21:34:00
3:41 PM,46.4,44.6,93,29.83,5.0,East,5.8,-,0.00,,Overcast,90,2013-01-10 21:41:00
3:52 PM,45.0,44.1,97,29.85,7.0,East,5.8,-,0.00,,Overcast,100,2013-01-10 21:52:00
4:52 PM,46.0,44.1,93,29.81,10.0,ENE,3.5,-,N/A,,Overcast,60,2013-01-10 22:52:00
5:48 PM,46.4,44.6,93,29.80,3.0,SE,4.6,-,N/A,,Overcast,140,2013-01-10 23:48:00
5:52 PM,46.0,45.0,96,29.81,2.5,SE,3.5,-,N/A,,Overcast,140,2013-01-10 23:52:00
6:06 PM,46.4,44.6,93,29.79,1.8,SSE,5.8,-,N/A,,Overcast,150,2013-01-11 00:06:00
6:52 PM,46.0,44.1,93,29.80,1.2,ESE,4.6,-,N/A,,Overcast,120,2013-01-11 00:52:00
7:09 PM,46.4,44.6,93,29.77,2.5,Calm,Calm,-,N/A,,Overcast,0,2013-01-11 01:09:00
7:16 PM,46.4,44.6,93,29.76,4.0,Calm,Calm,-,N/A,,Overcast,0,2013-01-11 01:16:00
7:26 PM,46.4,44.6,93,29.76,1.8,Calm,Calm,-,N/A,,Overcast,0,2013-01-11 01:26:00
7:41 PM,44.6,44.6,100,29.75,0.8,WNW,3.5,-,N/A,,Overcast,300,2013-01-11 01:41:00
7:52 PM,45.0,44.1,97,29.78,0.8,WSW,3.5,-,N/A,,Overcast,250,2013-01-11 01:52:00
7:59 PM,44.6,44.6,100,29.77,1.5,WSW,3.5,-,N/A,,Overcast,250,2013-01-11 01:59:00
8:35 PM,44.6,44.6,100,29.77,0.5,Calm,Calm,-,0.00,Fog-Rain,Light Rain,0,2013-01-11 02:35:00
8:52 PM,45.0,44.1,97,29.78,0.8,Calm,Calm,-,0.01,,Mist,0,2013-01-11 02:52:00
9:10 PM,44.6,44.6,100,29.76,0.8,Calm,Calm,-,0.00,Rain,Light Rain,0,2013-01-11 03:10:00
9:24 PM,44.6,42.8,93,29.75,1.0,West,3.5,-,0.00,,Overcast,260,2013-01-11 03:24:00
9:31 PM,44.6,44.6,100,29.76,2.0,Calm,Calm,-,0.01,,Overcast,0,2013-01-11 03:31:00
9:39 PM,44.6,44.6,100,29.76,1.8,South,3.5,-,0.01,,Overcast,180,2013-01-11 03:39:00
9:52 PM,44.1,44.1,100,29.77,0.8,SE,3.5,-,0.01,,Mist,140,2013-01-11 03:52:00
10:06 PM,44.6,42.8,93,29.74,1.0,Calm,Calm,-,N/A,,Overcast,0,2013-01-11 04:06:00
10:19 PM,44.6,44.6,100,29.74,2.5,SSE,3.5,-,N/A,,Overcast,150,2013-01-11 04:19:00
10:25 PM,44.6,44.6,100,29.74,4.0,SSE,4.6,-,N/A,,Overcast,160,2013-01-11 04:25:00
10:52 PM,44.6,42.8,93,29.72,10.0,South,3.5,-,N/A,,Overcast,180,2013-01-11 04:52:00
11:52 PM,44.6,42.8,93,29.72,10.0,South,3.5,-,N/A,,Overcast,190,2013-01-11 05:52:00